CW9638 Weather Reports


time (UTC)temp
C
wind
direction
speed
KPH
gust
KPH
rain 1hr
cm
rain 24hr
cm
rain mn
cm
humidity
%
barometer
mb
20260507135038 12 244 8.0 20.9 0.00 0.00 0.00 64 1012.4
20260507134537 12 291 11.3 20.9 0.00 0.00 0.00 65 1012.5
20260507134035 12 252 8.0 20.9 0.00 0.00 0.00 67 1012.5
20260507133537 11 245 9.7 19.3 0.00 0.00 0.00 66 1012.5
20260507133032 11 258 11.3 19.3 0.00 0.00 0.00 68 1012.6
20260507132530 11 262 9.7 16.1 0.00 0.00 0.00 69 1012.6
20260507132029 11 250 9.7 16.1 0.00 0.00 0.00 70 1012.6
20260507131528 10 248 8.0 16.1 0.00 0.00 0.00 71 1012.9
20260507131027 10 271 8.0 14.5 0.00 0.00 0.00 73 1012.9
20260507130529 10 227 6.4 16.1 0.00 0.00 0.00 75 1012.9
20260507130024 10 229 8.0 16.1 0.00 0.00 0.00 75 1013.0
20260507125527 9 232 8.0 19.3 0.00 0.00 0.00 76 1013.0
20260507125022 9 227 9.7 19.3 0.00 0.00 0.00 77 1013.0
20260507124524 8 254 8.0 14.5 0.00 0.00 0.00 79 1012.9
20260507124018 8 254 6.4 12.9 0.00 0.00 0.00 79 1012.9
20260507123516 8 250 8.0 14.5 0.00 0.00 0.00 80 1012.9
20260507123014 8 241 6.4 14.5 0.00 0.00 0.00 81 1013.0
20260507122513 7 259 4.8 11.3 0.00 0.00 0.00 81 1013.0
20260507122012 7 257 4.8 11.3 0.00 0.00 0.00 82 1013.0
20260507121511 7 250 6.4 11.3 0.00 0.00 0.00 82 1013.0
20260507121012 7 250 4.8 11.3 0.00 0.00 0.00 82 1013.0
20260507120508 7 225 4.8 8.0 0.00 0.00 0.00 82 1013.0
20260507120007 7 238 3.2 9.7 0.00 0.00 0.00 83 1013.0
20260507115506 6 226 4.8 9.7 0.00 0.00 0.00 83 1013.0
20260507115007 6 219 3.2 8.0 0.00 0.00 0.00 83 1013.0
20260507114503 6 232 3.2 8.0 0.00 0.00 0.00 82 1013.0
20260507114003 6 233 1.6 9.7 0.00 0.00 0.00 82 1013.0
20260507113502 6 240 1.6 6.4 0.00 0.00 0.00 82 1013.0
20260507113103 6 230 1.6 8.0 0.00 0.00 0.00 82 1013.0
20260507112600 6 233 3.2 9.7 0.00 0.00 0.00 82 1013.0
20260507112100 6 229 1.6 9.7 0.00 0.00 0.00 81 1013.0
20260507111559 6 250 3.2 9.7 0.00 0.00 0.00 82 1013.0
20260507111058 6 227 1.6 6.4 0.00 0.00 0.00 81 1013.0
20260507110559 6 243 3.2 6.4 0.00 0.00 0.00 81 1013.0
20260507110059 6 237 3.2 9.7 0.00 0.00 0.00 81 1012.9
20260507105558 6 258 4.8 9.7 0.00 0.00 0.00 81 1012.9
20260507105059 6 231 3.2 9.7 0.00 0.00 0.00 81 1012.9
20260507104558 6 258 3.2 9.7 0.00 0.00 0.00 81 1013.0
20260507104058 6 239 3.2 8.0 0.00 0.00 0.00 81 1013.0
20260507103557 6 229 1.6 6.4 0.00 0.00 0.00 80 1013.0
20260507103057 6 228 3.2 6.4 0.00 0.00 0.00 80 1013.0
20260507102556 6 227 3.2 6.4 0.00 0.00 0.00 80 1013.0
20260507102056 6 226 1.6 8.0 0.00 0.00 0.00 80 1013.0
20260507101555 6 226 4.8 8.0 0.00 0.00 0.00 80 1013.0
20260507101055 6 236 3.2 6.4 0.00 0.00 0.00 79 1013.0
20260507100657 6 236 3.2 6.4 0.00 0.00 0.00 79 1013.0
20260507100057 6 239 3.2 6.4 0.00 0.00 0.00 79 1013.0
20260507095553 6 231 3.2 6.4 0.00 0.00 0.00 78 1013.0
20260507095052 6 232 3.2 6.4 0.00 0.00 0.00 78 1013.0
20260507094555 6 243 1.6 6.4 0.00 0.00 0.00 78 1013.2
20260507094052 6 243 3.2 6.4 0.00 0.00 0.00 78 1013.2
20260507093551 6 239 3.2 6.4 0.00 0.00 0.00 78 1013.2
20260507093051 6 239 3.2 6.4 0.00 0.00 0.00 77 1013.5
20260507092551 6 240 3.2 6.4 0.00 0.00 0.00 77 1013.5
20260507092050 6 237 3.2 6.4 0.00 0.00 0.00 77 1013.5
20260507091550 6 225 3.2 4.8 0.00 0.00 0.00 76 1013.5
20260507091051 6 225 1.6 6.4 0.00 0.00 0.00 76 1013.5
20260507090549 6 225 3.2 8.0 0.00 0.00 0.00 75 1013.5
20260507090050 6 229 3.2 8.0 0.00 0.00 0.00 75 1013.7
20260507085553 6 225 3.2 6.4 0.00 0.00 0.00 75 1013.7
20260507085049 6 229 3.2 8.0 0.00 0.00 0.00 74 1013.7
20260507084553 6 232 3.2 8.0 0.00 0.00 0.00 74 1013.9
20260507084048 6 231 3.2 8.0 0.00 0.00 0.00 74 1013.9
20260507083547 6 232 3.2 8.0 0.00 0.00 0.00 74 1013.9
20260507083050 6 217 3.2 6.4 0.00 0.00 0.00 74 1014.1
20260507082546 6 236 1.6 8.0 0.00 0.00 0.00 73 1014.1
20260507082048 6 237 3.2 6.4 0.00 0.00 0.00 72 1014.1
20260507081545 6 228 1.6 6.4 0.00 0.00 0.00 71 1014.1
20260507081044 6 227 1.6 6.4 0.00 0.00 0.00 70 1014.1
20260507080544 6 227 1.6 6.4 0.00 0.00 0.00 69 1014.1
20260507075546 6 227 3.2 4.8 0.00 0.00 0.00 68 1014.2
20260507075042 6 227 1.6 4.8 0.00 0.00 0.00 67 1014.2
20260507074546 6 227 3.2 6.4 0.00 0.00 0.00 66 1014.4
20260507074041 6 227 3.2 6.4 0.00 0.00 0.00 66 1014.4
20260507073541 6 222 3.2 6.4 0.00 0.00 0.00 66 1014.4
20260507073045 6 221 3.2 6.4 0.00 0.00 0.00 65 1014.6
20260507072541 6 221 3.2 6.4 0.00 0.00 0.00 64 1014.6
20260507072044 6 221 3.2 4.8 0.00 0.00 0.00 64 1014.6
20260507071557 6 221 3.2 4.8 0.00 0.00 0.00 63 1014.8
20260507071043 6 220 1.6 8.0 0.00 0.00 0.00 62 1014.8
20260507070540 7 220 3.2 9.7 0.00 0.00 0.00 61 1014.8
20260507070040 7 215 4.8 9.7 0.00 0.00 0.00 61 1015.1
20260507065538 6 201 4.8 8.0 0.00 0.00 0.00 62 1015.1
20260507065038 6 215 3.2 9.7 0.00 0.00 0.00 61 1015.1
20260507064540 6 227 3.2 9.7 0.00 0.00 0.00 61 1015.2
20260507064037 6 223 3.2 8.0 0.00 0.00 0.00 61 1015.2
20260507063536 6 225 3.2 8.0 0.00 0.00 0.00 61 1015.2
20260507063039 6 217 1.6 6.4 0.00 0.00 0.00 62 1015.2
20260507062533 6 217 1.6 6.4 0.00 0.00 0.00 62 1015.2
20260507062033 6 217 1.6 6.4 0.00 0.00 0.00 63 1015.2
20260507061532 6 230 1.6 4.8 0.00 0.00 0.00 63 1015.4
20260507061033 6 230 0.0 4.8 0.00 0.00 0.00 63 1015.4
20260507060530 6 230 1.6 4.8 0.00 0.00 0.00 64 1015.4
20260507060031 5 230 0.0 3.2 0.00 0.00 0.00 64 1015.4
20260507055532 5 230 0.0 1.6 0.00 0.00 0.00 64 1015.4
20260507055031 5 230 0.0 3.2 0.00 0.00 0.00 64 1015.4
20260507054530 5 230 0.0 3.2 0.00 0.00 0.00 65 1015.4
20260507054030 5 230 0.0 4.8 0.00 0.00 0.00 66 1015.4
20260507053529 5 230 1.6 4.8 0.00 0.00 0.00 65 1015.4
20260507053029 5 230 1.6 4.8 0.00 0.00 0.00 64 1015.2
20260507052528 6 230 0.0 4.8 0.00 0.00 0.00 64 1015.2
20260507052027 5 230 0.0 1.6 0.00 0.00 0.00 63 1015.2
20260507051527 5 230 0.0 1.6 0.00 0.00 0.00 63 1015.5
20260507051025 5 230 0.0 1.6 0.00 0.00 0.00 64 1015.5
20260507050525 5 230 0.0 3.2 0.00 0.00 0.00 63 1015.5
20260507050025 5 230 0.0 3.2 0.00 0.00 0.00 63 1015.5
20260507045525 5 230 0.0 3.2 0.00 0.00 0.00 61 1015.5
20260507045025 6 230 0.0 3.2 0.00 0.00 0.00 60 1015.5
20260507044525 6 230 0.0 3.2 0.00 0.00 0.00 59 1015.6
20260507044025 6 230 0.0 4.8 0.00 0.00 0.00 56 1015.6
20260507043524 5 230 1.6 4.8 0.00 0.00 0.00 58 1015.6
20260507043033 5 230 3.2 4.8 0.00 0.00 0.00 60 1015.7
20260507042523 5 235 3.2 4.8 0.00 0.00 0.00 63 1015.7
20260507042025 4 243 1.6 4.8 0.00 0.00 0.00 65 1015.7
20260507041524 4 325 0.0 3.2 0.00 0.00 0.00 65 1015.7
20260507041023 4 325 0.0 1.6 0.00 0.00 0.00 64 1015.7
20260507040522 5 325 0.0 1.6 0.00 0.00 0.00 63 1015.7
20260507040023 5 325 0.0 3.2 0.00 0.00 0.00 63 1015.8
20260507035523 5 325 0.0 3.2 0.00 0.00 0.00 63 1015.8
20260507035023 5 325 0.0 4.8 0.00 0.00 0.00 61 1015.8
20260507034522 5 325 1.6 4.8 0.00 0.00 0.00 61 1016.1
20260507034022 5 325 0.0 1.6 0.00 0.00 0.00 62 1016.1
20260507033522 5 325 0.0 1.6 0.00 0.00 0.00 62 1016.1
20260507033022 5 325 0.0 1.6 0.00 0.00 0.00 61 1016.1
20260507032522 5 325 0.0 3.2 0.00 0.00 0.00 60 1016.1
20260507032023 5 325 0.0 3.2 0.00 0.00 0.00 59 1016.1
20260507031521 6 325 0.0 4.8 0.00 0.00 0.00 58 1016.1
20260507031021 6 325 1.6 4.8 0.00 0.00 0.00 55 1016.1
20260507030521 6 325 1.6 3.2 0.00 0.00 0.00 54 1016.1
20260507030021 6 325 0.0 4.8 0.00 0.00 0.00 54 1016.1
20260507025520 6 325 1.6 4.8 0.00 0.00 0.00 54 1016.1
20260507025020 6 325 1.6 4.8 0.00 0.00 0.00 55 1016.1
20260507024520 6 325 3.2 4.8 0.00 0.00 0.00 56 1016.0
20260507024023 6 325 3.2 4.8 0.00 0.00 0.00 55 1016.0
20260507023519 6 325 1.6 4.8 0.00 0.00 0.00 54 1016.0
20260507023019 6 325 1.6 4.8 0.00 0.00 0.00 53 1015.7
20260507022519 7 325 3.2 4.8 0.00 0.00 0.00 54 1015.7
20260507022020 7 325 1.6 3.2 0.00 0.00 0.00 54 1015.7
20260507021519 7 325 1.6 3.2 0.00 0.00 0.00 56 1015.7
20260507021020 7 325 0.0 1.6 0.00 0.00 0.00 52 1015.7
20260507020519 8 325 0.0 3.2 0.00 0.00 0.00 52 1015.7
20260507020019 8 325 0.0 4.8 0.00 0.00 0.00 50 1015.6
20260507015521 8 325 3.2 4.8 0.00 0.00 0.00 50 1015.6
20260507015020 8 325 0.0 3.2 0.00 0.00 0.00 50 1015.6
20260507014519 9 325 0.0 3.2 0.00 0.00 0.00 49 1015.6
20260507014019 10 325 0.0 4.8 0.00 0.00 0.00 48 1015.6
20260507013517 10 325 0.0 4.8 0.00 0.00 0.00 46 1015.6
20260507013021 11 325 3.2 6.4 0.00 0.00 0.00 44 1015.5
20260507012521 11 325 3.2 6.4 0.00 0.00 0.00 43 1015.5
20260507012019 12 12 1.6 4.8 0.00 0.00 0.00 38 1015.5
20260507011533 12 12 3.2 4.8 0.00 0.00 0.00 38 1015.6
20260507011017 13 12 3.2 4.8 0.00 0.00 0.00 36 1015.6
20260507010517 14 12 1.6 3.2 0.00 0.00 0.00 34 1015.6
20260507010017 15 12 0.0 3.2 0.00 0.00 0.00 31 1015.6
20260507005518 15 12 0.0 3.2 0.00 0.00 0.00 29 1015.6
20260507005017 15 12 0.0 1.6 0.00 0.00 0.00 29 1015.6
20260507004518 15 12 0.0 1.6 0.00 0.00 0.00 31 1015.6
20260507004017 15 12 0.0 4.8 0.00 0.00 0.00 31 1015.6
20260507003516 15 12 1.6 6.4 0.00 0.00 0.00 29 1015.6
20260507003019 15 12 3.2 9.7 0.00 0.00 0.00 29 1015.8
20260507002516 15 12 4.8 9.7 0.00 0.00 0.00 30 1015.8
20260507002016 15 5 6.4 9.7 0.00 0.00 0.00 28 1015.8
20260507001515 15 355 4.8 8.0 0.00 0.00 0.00 28 1016.0
20260507001016 15 355 4.8 12.9 0.00 0.00 0.00 27 1016.0
20260507000519 15 344 9.7 14.5 0.00 0.00 0.00 27 1016.0
20260507000015 16 340 6.4 14.5 0.00 0.00 0.00 27 1016.1
20260506235516 16 5 9.7 14.5 0.00 0.00 0.00 25 1016.1
20260506235015 16 336 6.4 11.3 0.00 0.00 0.00 26 1016.1
20260506234515 16 306 4.8 14.5 0.00 0.00 0.00 26 1016.2
20260506234015 16 321 8.0 14.5 0.00 0.00 0.00 27 1016.2
20260506233514 16 291 6.4 17.7 0.00 0.00 0.00 25 1016.2
20260506233015 16 299 11.3 17.7 0.00 0.00 0.00 25 1016.2
20260506232513 16 351 8.0 16.1 0.00 0.00 0.00 26 1016.2
20260506232014 16 285 8.0 14.5 0.00 0.00 0.00 26 1016.2
20260506231513 16 250 6.4 12.9 0.00 0.00 0.00 26 1016.3
20260506231014 16 323 6.4 22.5 0.00 0.00 0.00 25 1016.3
20260506230512 16 313 11.3 22.5 0.00 0.00 0.00 25 1016.3
20260506230012 16 306 9.7 19.3 0.00 0.00 0.00 26 1016.5
20260506225512 16 329 11.3 22.5 0.00 0.00 0.00 26 1016.5
20260506225012 16 360 12.9 22.5 0.00 0.00 0.00 26 1016.5
20260506224522 15 333 8.0 17.7 0.00 0.00 0.00 27 1016.5
20260506224014 15 346 6.4 14.5 0.00 0.00 0.00 29 1016.5
20260506223511 15 338 9.7 19.3 0.00 0.00 0.00 28 1016.5
20260506223011 15 344 8.0 20.9 0.00 0.00 0.00 27 1016.6
20260506222511 16 300 12.9 20.9 0.00 0.00 0.00 26 1016.6
20260506222011 16 360 9.7 14.5 0.00 0.00 0.00 25 1016.6
20260506221510 15 317 6.4 14.5 0.00 0.00 0.00 27 1016.8
20260506221010 15 9 9.7 17.7 0.00 0.00 0.00 29 1016.8
20260506220511 15 355 9.7 20.9 0.00 0.00 0.00 27 1016.8
20260506220010 15 298 8.0 17.7 0.00 0.00 0.00 28 1016.8
20260506215509 15 5 9.7 17.7 0.00 0.00 0.00 29 1016.8
20260506215009 15 23 11.3 19.3 0.00 0.00 0.00 27 1016.8
20260506214510 16 329 12.9 24.1 0.00 0.00 0.00 27 1016.8
20260506214009 16 302 16.1 29.0 0.00 0.00 0.00 26 1016.8
20260506213508 16 281 14.5 29.0 0.00 0.00 0.00 25 1016.8
20260506213013 16 298 11.3 24.1 0.00 0.00 0.00 26 1017.1
20260506212510 16 5 8.0 19.3 0.00 0.00 0.00 27 1017.1
20260506212007 16 321 11.3 19.3 0.00 0.00 0.00 26 1017.1
20260506211505 16 294 9.7 25.7 0.00 0.00 0.00 27 1017.3
20260506211005 16 263 12.9 25.7 0.00 0.00 0.00 26 1017.3
20260506210504 15 307 12.9 24.1 0.00 0.00 0.00 27 1017.3
20260506210002 15 309 9.7 17.7 0.00 0.00 0.00 28 1017.5
20260506205503 15 299 6.4 24.1 0.00 0.00 0.00 29 1017.5
20260506205003 15 316 14.5 24.1 0.00 0.00 0.00 29 1017.5
20260506204504 15 355 9.7 24.1 0.00 0.00 0.00 29 1017.7
20260506204002 15 325 8.0 24.1 0.00 0.00 0.00 28 1017.7
20260506203502 15 327 11.3 20.9 0.00 0.00 0.00 29 1017.7
20260506203003 15 262 8.0 20.9 0.00 0.00 0.00 29 1017.8
20260506202600 15 257 8.0 19.3 0.00 0.00 0.00 30 1017.8
20260506202100 14 325 8.0 22.5 0.00 0.00 0.00 30 1017.8
20260506201600 14 328 12.9 22.5 0.00 0.00 0.00 29 1017.9
20260506201101 15 15 8.0 14.5 0.00 0.00 0.00 32 1017.9
20260506200559 14 267 6.4 20.9 0.00 0.00 0.00 30 1017.9
20260506200100 13 329 9.7 20.9 0.00 0.00 0.00 30 1018.3
20260506195601 14 360 14.5 25.7 0.00 0.00 0.00 31 1018.3
20260506195100 14 340 17.7 27.4 0.00 0.00 0.00 30 1018.3
20260506194559 15 284 14.5 27.4 0.00 0.00 0.00 30 1018.3
20260506194058 14 242 11.3 20.9 0.00 0.00 0.00 31 1018.3
20260506193557 14 355 11.3 22.5 0.00 0.00 0.00 31 1018.3
20260506193058 14 355 14.5 27.4 0.00 0.00 0.00 30 1018.3
20260506192558 14 346 14.5 27.4 0.00 0.00 0.00 31 1018.3
20260506192100 14 309 8.0 17.7 0.00 0.00 0.00 31 1018.3
20260506191604 14 293 8.0 17.7 0.00 0.00 0.00 31 1018.3
20260506191057 14 360 8.0 25.7 0.00 0.00 0.00 30 1018.3
20260506190557 15 308 11.3 25.7 0.00 0.00 0.00 30 1018.3
20260506190058 14 311 9.7 20.9 0.00 0.00 0.00 31 1018.4
20260506185555 13 309 12.9 20.9 0.00 0.00 0.00 33 1018.4
20260506185058 13 11 12.9 25.7 0.00 0.00 0.00 30 1018.4
20260506184601 13 5 11.3 25.7 0.00 0.00 0.00 31 1018.7
20260506184055 13 287 12.9 22.5 0.00 0.00 0.00 32 1018.7
20260506183554 13 339 9.7 20.9 0.00 0.00 0.00 30 1018.7
20260506183058 13 279 11.3 29.0 0.00 0.00 0.00 32 1018.8
20260506182553 13 355 12.9 29.0 0.00 0.00 0.00 30 1018.8
20260506182053 13 333 8.0 20.9 0.00 0.00 0.00 31 1018.8
20260506181556 14 327 14.5 24.1 0.00 0.00 0.00 32 1018.8
20260506181051 14 284 8.0 24.1 0.00 0.00 0.00 34 1018.8
20260506180551 13 296 11.3 24.1 0.00 0.00 0.00 31 1018.8
20260506180053 13 318 11.3 30.6 0.00 0.00 0.00 32 1019.1
20260506175548 13 344 12.9 30.6 0.00 0.00 0.00 32 1019.1
20260506175050 13 345 11.3 20.9 0.00 0.00 0.00 32 1019.1
20260506174559 13 321 12.9 20.9 0.00 0.00 0.00 34 1019.2
20260506174050 13 343 12.9 22.5 0.00 0.00 0.00 33 1019.2
20260506173546 13 293 9.7 22.5 0.00 0.00 0.00 34 1019.2
20260506173052 12 54 11.3 17.7 0.00 0.00 0.00 33 1019.4
20260506172543 12 295 11.3 19.3 0.00 0.00 0.00 34 1019.4
20260506172043 12 292 9.7 19.3 0.00 0.00 0.00 33 1019.4
20260506171543 12 327 9.7 17.7 0.00 0.00 0.00 34 1019.6
20260506171043 12 5 4.8 19.3 0.00 0.00 0.00 34 1019.6
20260506170542 12 308 8.0 22.5 0.00 0.00 0.00 36 1019.6
20260506170040 12 336 4.8 24.1 0.00 0.00 0.00 35 1019.9
20260506165540 12 355 14.5 24.1 0.00 0.00 0.00 33 1019.9
20260506165040 12 284 11.3 25.7 0.00 0.00 0.00 34 1019.9
20260506164546 12 322 16.1 25.7 0.00 0.00 0.00 35 1019.7
20260506164039 12 309 9.7 22.5 0.00 0.00 0.00 34 1019.7
20260506163538 12 25 14.5 22.5 0.00 0.00 0.00 34 1019.7
20260506163054 12 327 16.1 24.1 0.00 0.00 0.00 36 1019.8
20260506162536 12 360 12.9 24.1 0.00 0.00 0.00 36 1019.8
20260506162037 12 355 12.9 22.5 0.00 0.00 0.00 34 1019.8
20260506161537 11 309 9.7 24.1 0.00 0.00 0.00 36 1019.7
20260506161037 11 337 12.9 24.1 0.00 0.00 0.00 36 1019.7
20260506160535 11 311 9.7 14.5 0.00 0.00 0.00 35 1019.7
20260506160035 11 344 9.7 17.7 0.00 0.00 0.00 35 1019.6
20260506155535 11 332 11.3 17.7 0.00 0.00 0.00 37 1019.6
20260506155036 11 259 8.0 20.9 0.00 0.00 0.00 35 1019.6
20260506154537 11 325 14.5 20.9 0.00 0.00 0.00 35 1019.5
20260506154033 11 5 11.3 24.1 0.00 0.00 0.00 36 1019.5
20260506153532 11 311 6.4 24.1 0.00 0.00 0.00 36 1019.5
20260506153032 11 5 11.3 17.7 0.00 0.00 0.00 37 1019.4
20260506152530 11 349 9.7 16.1 0.00 0.00 0.00 36 1019.4
20260506152029 11 293 8.0 16.1 0.00 0.00 0.00 38 1019.4
20260506151537 11 279 8.0 19.3 0.00 0.00 0.00 38 1019.5
20260506151027 11 304 11.3 19.3 0.00 0.00 0.00 39 1019.5
20260506150526 11 340 8.0 14.5 0.00 0.00 0.00 39 1019.5
20260506150025 11 351 6.4 14.5 0.00 0.00 0.00 39 1019.5
20260506145524 11 5 8.0 14.5 0.00 0.00 0.00 42 1019.5
20260506145024 10 329 8.0 14.5 0.00 0.00 0.00 39 1019.5
20260506144523 10 360 6.4 14.5 0.00 0.00 0.00 42 1019.7
20260506144023 10 355 9.7 14.5 0.00 0.00 0.00 40 1019.7
20260506143521 10 344 6.4 12.9 0.00 0.00 0.00 43 1019.7
20260506143019 10 11 1.6 11.3 0.00 0.00 0.00 46 1019.6
20260506142522 10 345 4.8 11.3 0.00 0.00 0.00 44 1019.6
20260506142024 10 12 1.6 8.0 0.00 0.00 0.00 45 1019.6
20260506141519 10 342 3.2 8.0 0.00 0.00 0.00 46 1019.5
20260506141023 10 333 0.0 9.7 0.00 0.00 0.00 50 1019.5
20260506140518 9 324 4.8 9.7 0.00 0.00 0.00 49 1019.5
20260506140026 9 53 4.8 9.7 0.00 0.00 0.00 49 1019.4
20260506135518 8 320 4.8 8.0 0.00 0.00 0.00 51 1019.4